Weather History for Marshalltown, IA

Change the Weather History Date:

Wednesday, February 12, 2014

  Actual Average Record
Temperature  
Mean Temperature 13 °F 22 °F  
Max Temperature 21 °F 31 °F 41 °F (2005)
Min Temperature 5 °F 13 °F -8 °F (2008)
Degree Days  
Heating Degree Days 52 43  
Month to date heating degree days 733 529  
Since 1 July heating degree days 5353 4762  
Cooling Degree Days 0 0  
Month to date cooling degree days 0 0  
Year to date cooling degree days 0 0  
Moisture  
Dew Point 9 °F    
Average Humidity 80    
Maximum Humidity 96    
Minimum Humidity 64    
Precipitation  
Precipitation T in 0.03 in 0.03 in (1998)
Month to date precipitation 0.01 0.30  
Sea Level Pressure  
Sea Level Pressure 30.08 in    
Wind  
Wind Speed 7 mph (South)    
Max Wind Speed 17 mph    
Max Gust Speed 23 mph    
Visibility 4 miles    
Events Snow    
T = Trace of Precipitation, MM = Missing Value Source: NWS Daily Summary

Daily Weather History Graph

Daily Weather History Graph

Search for Another Location

Airport:

Trip Planner

Search our weather history database for the weather conditions in past years. The results will help you decide how hot, cold, wet, or windy it might be!

Date:

Astronomy

Feb. 12, 2014 Rise Set
Actual Time 7:11 AM CST 5:40 PM CST
Civil Twilight 6:42 AM CST 6:09 PM CST
Nautical Twilight 6:09 AM CST 6:42 PM CST
Astronomical Twilight 5:37 AM CST 7:14 PM CST
Moon 3:54 PM CST (2/12) 5:29 AM CST (2/12)
Length of Visible Light 11h 26m
Length of Day
10h 28m
Waxing Gibbous, 95% of the Moon is Illuminated
Feb 12
Waxing Gibbous
Feb 14
Full
Feb 22
Last Quarter
Mar 1
New
Mar 8
First Quarter

Hourly Weather History & Observations

Time (CST) Temp. Windchill Dew Point Humidity Pressure Visibility Wind Dir Wind Speed Gust Speed Precip Events Conditions
12:53 AM 12.0 °F -2.7 °F 3.9 °F 70% 30.23 in 10.0 mi South 12.7 mph - N/A   Overcast
1:53 AM 12.9 °F -0.9 °F 3.9 °F 67% 30.21 in 10.0 mi South 11.5 mph - N/A   Overcast
2:53 AM 12.9 °F -2.8 °F 3.9 °F 67% 30.19 in 10.0 mi South 15.0 mph - N/A   Overcast
3:53 AM 14.0 °F -0.8 °F 3.9 °F 64% 30.16 in 10.0 mi South 13.8 mph - N/A   Overcast
4:53 AM 14.0 °F -0.8 °F 6.1 °F 71% 30.17 in 8.0 mi South 13.8 mph - 0.00 in   Overcast
5:03 AM 14.0 °F -0.8 °F 5.0 °F 67% 30.11 in 5.0 mi South 13.8 mph - 0.00 in Snow Light Snow
5:07 AM 14.0 °F -2.0 °F 6.1 °F 71% 30.10 in 1.5 mi South 16.1 mph - 0.00 in Snow Light Snow
5:12 AM 12.9 °F -3.4 °F 8.1 °F 81% 30.10 in 0.5 mi South 16.1 mph - 0.00 in Snow Snow
5:33 AM 12.9 °F -1.6 °F 10.0 °F 88% 30.08 in 1.0 mi South 12.7 mph - 0.00 in Snow Light Snow
5:51 AM 12.2 °F -1.8 °F 10.4 °F 92% 30.08 in 2.5 mi South 11.5 mph - 0.00 in Snow Light Snow
5:53 AM 12.9 °F -0.9 °F 10.0 °F 88% 30.14 in 4.0 mi South 11.5 mph - 0.00 in Snow Light Snow
6:06 AM 12.9 °F 0.7 °F 10.0 °F 88% 30.07 in 1.8 mi South 9.2 mph - 0.00 in Snow Light Snow
6:33 AM 14.0 °F 1.2 °F 10.9 °F 88% 30.08 in 3.0 mi South 10.4 mph - 0.00 in Snow Light Snow
6:45 AM 14.0 °F 2.9 °F 10.9 °F 88% 30.08 in 2.0 mi South 8.1 mph - 0.00 in Snow Light Snow
6:53 AM 12.9 °F 1.6 °F 10.9 °F 92% 30.14 in 1.2 mi South 8.1 mph - 0.00 in Snow Light Snow
7:53 AM 14.0 °F 3.9 °F 10.9 °F 88% 30.15 in 1.0 mi South 6.9 mph - 0.00 in Snow Light Snow
8:33 AM 14.0 °F 5.1 °F 10.9 °F 88% 30.09 in 2.0 mi South 5.8 mph - 0.00 in Snow Light Snow
8:51 AM 14.0 °F 3.9 °F 10.4 °F 86% 30.09 in 1.0 mi SSW 6.9 mph - 0.00 in Snow Light Snow
8:53 AM 14.0 °F 5.1 °F 10.9 °F 88% 30.15 in 1.0 mi SSW 5.8 mph - 0.00 in Snow Light Snow
9:10 AM 15.1 °F 6.4 °F 12.0 °F 88% 30.09 in 1.2 mi SW 5.8 mph - 0.00 in Snow Light Snow
9:23 AM 15.1 °F 5.2 °F 10.9 °F 84% 30.09 in 0.8 mi SSW 6.9 mph - 0.00 in Snow Light Snow
9:34 AM 15.1 °F 5.2 °F 12.0 °F 88% 30.09 in 1.2 mi South 6.9 mph - 0.00 in Snow Light Snow
9:45 AM 15.1 °F 6.4 °F 12.0 °F 88% 30.09 in 2.5 mi South 5.8 mph - 0.00 in Snow Light Snow
9:53 AM 15.1 °F 7.7 °F 12.0 °F 88% 30.15 in 3.0 mi South 4.6 mph - 0.00 in Snow Light Snow
10:06 AM 16.0 °F 7.4 °F 12.0 °F 84% 30.09 in 2.0 mi SSW 5.8 mph - 0.00 in Snow Light Snow
10:19 AM 16.0 °F 7.4 °F 12.0 °F 84% 30.08 in 4.0 mi SSW 5.8 mph - 0.00 in Snow Light Snow
10:53 AM 17.1 °F 7.6 °F 12.0 °F 81% 30.14 in 4.0 mi SW 6.9 mph - 0.00 in Snow Light Snow
11:06 AM 17.1 °F 10.0 °F 12.9 °F 84% 30.08 in 2.5 mi SSW 4.6 mph - 0.00 in Snow Light Snow
11:19 AM 17.1 °F 10.0 °F 12.9 °F 84% 30.09 in 3.0 mi WSW 4.6 mph - 0.00 in Snow Light Snow
11:53 AM 18.0 °F 11.1 °F 12.9 °F 81% 30.14 in 8.0 mi WSW 4.6 mph - 0.00 in   Overcast
12:53 PM 19.0 °F 12.3 °F 14.0 °F 81% 30.11 in 10.0 mi NW 4.6 mph - N/A   Overcast
1:53 PM 19.9 °F 11.1 °F 14.0 °F 78% 30.09 in 10.0 mi North 6.9 mph - N/A   Overcast
2:53 PM 21.0 °F 14.6 °F 14.0 °F 74% 30.07 in 10.0 mi NNE 4.6 mph - N/A   Overcast
3:53 PM 19.9 °F 14.9 °F 14.0 °F 78% 30.10 in 10.0 mi NNW 3.5 mph - N/A   Overcast
4:53 PM 17.1 °F 10.0 °F 12.0 °F 81% 30.06 in 9.0 mi ENE 4.6 mph - N/A   Clear
5:53 PM 10.9 °F 4.7 °F 9.0 °F 92% 30.05 in 8.0 mi East 3.5 mph - N/A   Clear
6:53 PM 10.0 °F 3.6 °F 7.0 °F 87% 30.04 in 6.0 mi ESE 3.5 mph - N/A   Clear
7:53 PM 9.0 °F - 7.0 °F 92% 30.04 in 5.0 mi Calm Calm - N/A   Clear
8:39 PM 7.0 °F - 5.0 °F 92% 29.99 in 0.8 mi Calm Calm - N/A   Clear
8:53 PM 8.1 °F - 6.1 °F 92% 30.04 in 1.5 mi Calm Calm - N/A   Clear
9:06 PM 6.1 °F -0.9 °F 5.0 °F 95% 29.98 in 0.8 mi SE 3.5 mph - N/A   Clear
9:23 PM 7.0 °F - 6.1 °F 96% 29.98 in 2.0 mi Calm Calm - N/A   Partly Cloudy
9:51 PM 5.0 °F -2.1 °F 3.2 °F 92% 29.96 in 4.0 mi SSE 3.5 mph - N/A   Clear
9:53 PM 5.0 °F -4.1 °F 3.9 °F 95% 30.02 in 4.0 mi SSE 4.6 mph - N/A   Clear
10:13 PM 7.0 °F -4.5 °F 5.0 °F 92% 29.93 in 5.0 mi SE 6.9 mph - N/A   Mostly Cloudy
10:53 PM 12.0 °F 2.7 °F 10.0 °F 92% 29.96 in 6.0 mi SSE 5.8 mph - N/A   Overcast
11:53 PM 16.0 °F 2.9 °F 12.9 °F 88% 29.92 in 7.0 mi SSE 11.5 mph - N/A   Overcast